Regional Weather Roundup
Issued by NWS Upton, NY

Current Version | Previous Version | Graphics & Text | Print | Product List | Glossary Off
Versions: 1 2 3 4 5 6 7 8 9 10 11 12 13 14 15 16 17 18 19 20 21 22 23 24 25 26 27 28 29 30 31 32 33 34 35 36 37 38 39 40 41 42 43 44 45 46 47 48 49 50

591
ASUS41 KOKX 210008
RWROKX

REGIONAL WEATHER ROUNDUP
NATIONAL WEATHER SERVICE NEW YORK NY
700 PM EST MON FEB 20 2017

NOTE: "FAIR" INDICATES FEW OR NO CLOUDS BELOW 12,000 FEET WITH NO
SIGNIFICANT WEATHER AND/OR OBSTRUCTIONS TO VISIBILITY.

NYZ071-072-176-178-NJZ106-104-210100-
NEW YORK CITY METRO AREA

CITY           SKY/WX    TMP DP  RH WIND       PRES   REMARKS
Central Park   CLEAR     46  12  25 NE14G20   30.32R
Wall St Helipt NOT AVBL
LaGuardia APRT PTCLDY    48  13  24 NE15      30.29R
Kennedy INTL   PTCLDY    47  11  23 N16       30.30R
Breezy Point     N/A     46 N/A N/A NE12        N/A
Newark/Liberty PTCLDY    45  13  27 N14       30.29R
Teterboro      CLEAR     47  13  25 N7        30.30R
$$

NYZ177-179-078>081-210100-
LONG ISLAND NEW YORK

CITY           SKY/WX    TMP DP  RH WIND       PRES   REMARKS
Jones Beach      N/A     45 N/A N/A N15         N/A
Matinecock PT    N/A     43 N/A N/A NE18        N/A
Farmingdale    CLEAR     42  16  34 N13       30.29R
MacArthur/ISP  PTCLDY    42  18  37 N12       30.28R
Shirley        CLEAR     40  20  44 N8        30.29R WCI  34
Westhampton    CLEAR     40  15  36 N10       30.29R WCI  33
Southampton    NOT AVBL
Bridgehampton  NOT AVBL
East Hampton     N/A     41  16  36 N9        30.27R
Montauk          N/A     43  24  47 N8        30.28R
$$

NYZ052-065-067-210100-
HUDSON VALLEY

CITY           SKY/WX    TMP DP  RH WIND       PRES   REMARKS
White Plains   CLEAR     41   9  26 N13       30.29R
Newburgh       CLEAR     39  16  38 NE6       30.32R WCI  35
Montgomery     CLEAR     36  18  48 N7        30.31R WCI  30
Poughkeepsie   CLEAR     37  18  46 NE8       30.32R WCI  31
Albany         PTCLDY    34  14  43 NE7       30.37R WCI  28
$$

NJZ001-105-106-008-010-013-015-019>022-104-210100-
NEW JERSEY

CITY           SKY/WX    TMP DP  RH WIND       PRES   REMARKS
Newark/Liberty PTCLDY    45  13  27 N14       30.29R
Teterboro      CLEAR     47  13  25 N7        30.30R
Caldwell       CLEAR     45  12  26 NE6       30.31R
Somerville     CLEAR     46  10  23 N5        30.27R
Linden         NOT AVBL
Sussex         CLEAR     41  17  38 NE8       30.30R
Andover          N/A     38  15  39 CALM      30.29R
Trenton        CLEAR     48  10  21 N7        30.27R
Millville      CLEAR     41  27  57 NW3       30.26R
Atlantic City  CLEAR     42  24  49 N5        30.26R
Wrightstown    CLEAR     44  16  32 N9        30.25R
Toms River     CLEAR     40  27  59 NE3       30.28R
Belmar         CLEAR     48  11  22 N9        30.28R
$$

PAZ047>061-062-071-210100-
EASTERN PENNSYLVANIA

CITY           SKY/WX    TMP DP  RH WIND       PRES   REMARKS
Philadelphia   PTCLDY    52  18  26 N10       30.27R
Allentown      CLEAR     44  15  31 N3        30.29R
Scranton       CLEAR     39  17  41 NE6       30.29R WCI  35
$$

CTZ002-004>006-009-010-012-RIZ004-006-007-MAZ004-011-015-210100-
SOUTHERN NEW ENGLAND
 IN CT

CITY           SKY/WX    TMP DP  RH WIND       PRES   REMARKS
Bradley INTL   PTCLDY    38  10  31 N8        30.31R WCI  32
Hartford       CLEAR     40  11  30 N9        30.31R WCI  34
Danbury        CLEAR     39  16  39 N8        30.31R WCI  33
Wtrbury/Oxford CLEAR     37  12  35 N14G22    30.29R WCI  29
Bridgeport     CLEAR     43  17  35 N7        30.30R
Meriden        CLEAR     42   8  24 N10       30.30R
New Haven      CLEAR     41  10  28 N12       30.30R
Chester          N/A     41  12  30 VRB6      30.28R
Groton         CLEAR     40   9  28 N7        30.28R
Wilimantic     CLEAR     39  13  34 N5        30.30R

 IN RI

CITY           SKY/WX    TMP DP  RH WIND       PRES   REMARKS
Providence     CLEAR     38  15  39 N9        30.29R WCI  31
Block Island   PTCLDY    37  31  78 E5        30.28R WCI  33
Westerly       CLEAR     41  11  29 N6        30.28R
 IN MA

CITY           SKY/WX    TMP DP  RH WIND       PRES   REMARKS
Boston         PTCLDY    40  15  36 NW12      30.29R WCI  33
Worcester      CLEAR     34   9  35 N7        30.27R WCI  28
Westfield      CLEAR     35  14  42 N7        30.31R WCI  29
Provincetown   PTCLDY    40  23  50 N20       30.28R WCI  30
Nantucket      PTCLDY    36  25  64 N12       30.27R WCI  28
$$

ANZ330-335-338-340-345-350-353-355-210100-
COASTAL MARINE OBSERVATIONS


STATION/POSITION TIME  SKY/WX   TEMP    WIND        PRES    VSBY  WAVE
                                AIR SEA DIR/SP/G                  HT/PER
                 (UTC)          (F)     (DEG/KT/KT) (MB)    (MI)  (FT/S)
NY HARB ENTRANCE 2250            47 43  320/  8/ 10 1023.6          1/ 7
20 S FIRE ISLAND 2350            44 41   10/ 14/ 16 1024.6          2/ 3
GREAT SOUTH BAY  NOT AVBL
23 SSW MONTAUK P 2250            44 44              1024.1          2/ 8
15 E BARNEGAT LI 2330               43                N/A           2/ 8
HUDSON CANYON    2250               50              1022.8          3/ 5
KINGS POINT      2342            44 39              1025.8
EXECUTION ROCKS  NOT AVBL
CENTRAL LI SOUND 2300            43     340/ 12/ 14   N/A           1/ 3
EASTERN LI SOUND NOT AVBL
ROBBINS REEF     2342            48      10/ 14/ 15 1025.7
$$


>>>>>>>>>>>>>>>>>>>>>>>>>>>> KEY <<<<<<<<<<<<<<<<<<<<<<<<<<<
>                                                          <
>     SKY/WX - Sky Condition/Present Weather               <
>     TMP    - Temperature in Fahrenheit                   <
>     DP     - Dew Point in Fahrenheit                     <
>     RH     - Relative Humidity in Percent                <
>     WIND   - Direction (from) and Speed in MPH           <
>     PRES   - Mean Sea Level Pressure (inches of Hg)      <
>     WCI    - Wind Chill Index                            <
>     VSB    - VISIBILITY IN MILES                         <
>     HX     - HEAT INDEX                                  <
>     TC     - TEMPERATURE IN CELSIUS                      <
>     VRB    - VARIABLE WIND DIRECTION                     <
>                                                          <
>>>>>>>>>>>>>>>>>>>>>>>>>>>> KEY <<<<<<<<<<<<<<<<<<<<<<<<<<<




USA.gov is the U.S. government's official web portal to all federal, state and local government web resources and services.